BREEZE-M R/B

Last updated on Wed Apr 12 2023 01:02:03 GMT+0100 (British Summer Time)

1 55842U 23031B 23100.66726291 -.00000070 00000+0 00000+0 0 9994 2 55842 0.2215 286.9673 0070119 146.2878 287.5165 0.98959912 265
UTC large
Height (km)
Speed (km/s)
/
Latitude / Longitude
Inclination (degrees)
Orbital Period (minutes)
Azimuth
Elevation
Range (km)
Doppler Factor

Next 0 passes for location: London (51.5072 / 0.1276)

Sorry there are no passes over London.